Location: *
(58.7167°N, 26.1833°E)
Time: 17:42:45
(UTC+00:00)

Cosmos 494 Rocket - Pass Details

Date: 25 August 2019
Orbit: 742 x 771 km, 74.1° (Epoch: 13 October)

Event Time Altitude Azimuth Distance (km) Brightness Sun altitude
Rises 19:50:59 0° 328° (NNW) 3,198 9.1 -14.6°
Reaches altitude 10° 19:53:21 10° 327° (NNW) 2,272 7.9 -14.8°
Maximum altitude 19:58:28 72° 244° (WSW) 790 4.1 -15.2°
Enters shadow 20:01:41 23° 164° (SSE) 1,552 5.0 -15.4°
